User: anonymous   Login
Location: Unspecified
(0.0000°N, 0.0000°E)
Time: 22:46:53
(UTC+00:00)
Language:

LIBERTAD 1 - Orbit

View from above orbital plane
View from above orbital plane
View from above satellite
View from above satellite

Ground track
Ground track

The orbit data is extracted from the following two-line orbital elements,

1 31128U 07012M   17113.85802388 +.00000408 +00000-0 +97890-4 0  9999
2 31128 098.0772 064.1299 0097259 012.1538 348.1974 14.55830422531529
Epoch (UTC): 23 April 2017 20:35:33
Eccentricity: 0.0097259
inclination: 98.0772°
perigee height: 638 km
apogee height: 775 km
right ascension of ascending node: 64.1299°
argument of perigee: 12.1538°
revolutions per day: 14.55830422
mean anomaly at epoch: 348.1974°
orbit number at epoch: 53152

The dashed part of the orbit path shows where the satellite is in the earth's shadow,  

DLR